Location: Erskine
(52.3216°N, 112.8806°W)
Time: 23:10:59
(UTC+00:00)

AAUSAT CUBESAT 2 - Pass Details

Date: 14 December 2023
Orbit: 526 x 534 km, 97.6° (Epoch: 27 February)

Event Time Altitude Azimuth Distance (km) Brightness Sun altitude
Rises 23:57:53 0° 201° (SSW) 2,660 ? -5.8°
Reaches altitude 10° 00:00:24 10° 219° (SW) 1,773 ? -6.1°
Maximum altitude 00:03:18 20° 268° (W) 1,252 ? -6.5°
Drops below altitude 10° 00:06:12 10° 317° (NW) 1,782 ? -6.9°
Sets 00:08:45 0° 335° (NNW) 2,677 ? -7.2°
